| time (UTC) | temp F | wind direction | speed MPH | gust MPH | rain 1hr in | rain 24hr in | rain mn in | humidity % | barometer mb |
| 20260503183442 | 75 | 224 | 1.0 | 2.0 | 0.00 | 0.00 | 0.00 | 25 | 1004.2 |
| 20260503182938 | 75 | 161 | 1.0 | 2.0 | 0.00 | 0.00 | 0.00 | 25 | 1004.5 |
| 20260503182437 | 75 | 242 | 2.0 | 2.0 | 0.00 | 0.00 | 0.00 | 25 | 1004.5 |
| 20260503181935 | 74 | 185 | 4.0 | 7.0 | 0.00 | 0.00 | 0.00 | 25 | 1004.5 |
| 20260503181432 | 74 | 191 | 3.0 | 3.0 | 0.00 | 0.00 | 0.00 | 28 | 1004.8 |
| 20260503180927 | 75 | 106 | 3.0 | 3.0 | 0.00 | 0.00 | 0.00 | 26 | 1004.5 |
| 20260503180427 | 75 | 158 | 1.0 | 2.0 | 0.00 | 0.00 | 0.00 | 26 | 1004.8 |
| 20260503175922 | 75 | 149 | 2.0 | 4.0 | 0.00 | 0.00 | 0.00 | 27 | 1004.8 |
| 20260503175421 | 75 | 199 | 3.0 | 3.0 | 0.00 | 0.00 | 0.00 | 26 | 1004.8 |
| 20260503174916 | 75 | 198 | 3.0 | 3.0 | 0.00 | 0.00 | 0.00 | 28 | 1004.8 |
| 20260503174415 | 75 | 141 | 4.0 | 6.0 | 0.00 | 0.00 | 0.00 | 26 | 1004.8 |
| 20260503173909 | 74 | 164 | 5.0 | 6.0 | 0.00 | 0.00 | 0.00 | 25 | 1004.8 |
| 20260503173406 | 74 | 206 | 2.0 | 2.0 | 0.00 | 0.00 | 0.00 | 26 | 1004.8 |
| 20260503172903 | 74 | 82 | 0.0 | 1.0 | 0.00 | 0.00 | 0.00 | 25 | 1004.8 |
| 20260503172400 | 74 | 180 | 3.0 | 3.0 | 0.00 | 0.00 | 0.00 | 26 | 1004.8 |
| 20260503171856 | 74 | 112 | 2.0 | 3.0 | 0.00 | 0.00 | 0.00 | 27 | 1004.8 |
| 20260503171353 | 74 | 149 | 1.0 | 2.0 | 0.00 | 0.00 | 0.00 | 27 | 1004.8 |
| 20260503170850 | 74 | 237 | 3.0 | 4.0 | 0.00 | 0.00 | 0.00 | 27 | 1005.6 |
| 20260503170346 | 73 | 188 | 1.0 | 1.0 | 0.00 | 0.00 | 0.00 | 28 | 1005.3 |
| 20260503150739 | 64 | 195 | 1.0 | 2.0 | 0.00 | 0.00 | 0.00 | 33 | 1006.3 |
| 20260503150235 | 64 | 173 | 3.0 | 3.0 | 0.00 | 0.00 | 0.00 | 33 | 1006.3 |
| 20260503140159 | 61 | 179 | 3.0 | 4.0 | 0.00 | 0.00 | 0.00 | 37 | 1006.6 |
| 20260503131129 | 57 | 354 | 2.0 | 3.0 | 0.00 | 0.00 | 0.00 | 42 | 1007.3 |
| 20260503130626 | 57 | 178 | 3.0 | 6.0 | 0.00 | 0.00 | 0.00 | 43 | 1007.0 |
| 20260503130124 | 57 | 147 | 2.0 | 4.0 | 0.00 | 0.00 | 0.00 | 43 | 1007.3 |
| 20260503110510 | 55 | 86 | 2.0 | 3.0 | 0.00 | 0.00 | 0.00 | 46 | 1007.3 |
| 20260503090402 | 55 | 175 | 1.0 | 1.0 | 0.00 | 0.00 | 0.00 | 44 | 1009.4 |
| 20260503081329 | 54 | 144 | 3.0 | 4.0 | 0.00 | 0.00 | 0.00 | 40 | 1009.8 |
| 20260503080825 | 54 | 180 | 3.0 | 3.0 | 0.00 | 0.00 | 0.00 | 41 | 1009.8 |
| 20260503080317 | 54 | 198 | 2.0 | 2.0 | 0.00 | 0.00 | 0.00 | 43 | 1009.8 |
| 20260503072753 | 55 | 186 | 3.0 | 3.0 | 0.00 | 0.00 | 0.00 | 37 | 1009.8 |
| 20260503072250 | 55 | 228 | 3.0 | 4.0 | 0.00 | 0.00 | 0.00 | 37 | 1009.8 |
| 20260503071746 | 55 | 186 | 3.0 | 4.0 | 0.00 | 0.00 | 0.00 | 38 | 1010.1 |
| 20260503071244 | 55 | 187 | 4.0 | 4.0 | 0.00 | 0.00 | 0.00 | 38 | 1010.5 |
| 20260503070740 | 55 | 190 | 4.0 | 4.0 | 0.00 | 0.00 | 0.00 | 37 | 1010.5 |
| 20260503070238 | 55 | 188 | 3.0 | 3.0 | 0.00 | 0.00 | 0.00 | 36 | 1010.5 |
| 20260503060157 | 55 | 202 | 3.0 | 3.0 | 0.00 | 0.00 | 0.00 | 37 | 1011.1 |
| 20260503054644 | 54 | 187 | 4.0 | 6.0 | 0.00 | 0.00 | 0.00 | 38 | 1010.8 |
| 20260503054141 | 54 | 174 | 4.0 | 6.0 | 0.00 | 0.00 | 0.00 | 38 | 1011.1 |
| 20260503053639 | 54 | 188 | 4.0 | 6.0 | 0.00 | 0.00 | 0.00 | 37 | 1011.1 |
| 20260503053138 | 53 | 177 | 5.0 | 6.0 | 0.00 | 0.00 | 0.00 | 38 | 1011.1 |
| 20260503052634 | 53 | 153 | 3.0 | 4.0 | 0.00 | 0.00 | 0.00 | 40 | 1011.1 |
| 20260503052130 | 53 | 188 | 3.0 | 3.0 | 0.00 | 0.00 | 0.00 | 41 | 1010.8 |
| 20260503051625 | 53 | 172 | 2.0 | 3.0 | 0.00 | 0.00 | 0.00 | 42 | 1011.1 |
| 20260503051124 | 53 | 187 | 2.0 | 3.0 | 0.00 | 0.00 | 0.00 | 43 | 1011.1 |
| 20260503050620 | 53 | 201 | 1.0 | 2.0 | 0.00 | 0.00 | 0.00 | 41 | 1011.5 |
| 20260503050116 | 53 | 199 | 2.0 | 3.0 | 0.00 | 0.00 | 0.00 | 43 | 1011.5 |
| 20260503045614 | 53 | 187 | 2.0 | 2.0 | 0.00 | 0.00 | 0.00 | 42 | 1011.5 |
| 20260503045111 | 53 | 189 | 1.0 | 2.0 | 0.00 | 0.00 | 0.00 | 42 | 1011.1 |
| 20260503044608 | 53 | 213 | 1.0 | 1.0 | 0.00 | 0.00 | 0.00 | 43 | 1011.1 |
| 20260503044105 | 54 | 210 | 2.0 | 2.0 | 0.00 | 0.00 | 0.00 | 41 | 1011.5 |
| 20260503043601 | 54 | 219 | 1.0 | 1.0 | 0.00 | 0.00 | 0.00 | 43 | 1011.5 |
| 20260503043058 | 54 | 203 | 2.0 | 2.0 | 0.00 | 0.00 | 0.00 | 42 | 1011.5 |
| 20260503042555 | 54 | 185 | 1.0 | 2.0 | 0.00 | 0.00 | 0.00 | 42 | 1011.1 |
| 20260503042051 | 54 | 204 | 2.0 | 3.0 | 0.00 | 0.00 | 0.00 | 41 | 1011.5 |
| 20260503041548 | 54 | 201 | 2.0 | 2.0 | 0.00 | 0.00 | 0.00 | 41 | 1011.1 |
| 20260503041046 | 54 | 212 | 1.0 | 1.0 | 0.00 | 0.00 | 0.00 | 41 | 1011.5 |
| 20260503040543 | 54 | 220 | 1.0 | 1.0 | 0.00 | 0.00 | 0.00 | 41 | 1011.5 |
| 20260503040040 | 55 | 206 | 1.0 | 1.0 | 0.00 | 0.00 | 0.00 | 41 | 1011.5 |
| 20260503035537 | 55 | 201 | 0.0 | 0.0 | 0.00 | 0.00 | 0.00 | 41 | 1011.8 |
| 20260503035035 | 55 | 212 | 1.0 | 2.0 | 0.00 | 0.00 | 0.00 | 40 | 1011.8 |
| 20260503034531 | 55 | 237 | 0.0 | 0.0 | 0.00 | 0.00 | 0.00 | 38 | 1011.8 |
| 20260503034029 | 56 | 226 | 0.0 | 0.0 | 0.00 | 0.00 | 0.00 | 38 | 1011.8 |
| 20260503033526 | 56 | 213 | 1.0 | 1.0 | 0.00 | 0.00 | 0.00 | 37 | 1011.8 |
| 20260503033023 | 56 | 215 | 0.0 | 1.0 | 0.00 | 0.00 | 0.00 | 37 | 1011.8 |
| 20260503032522 | 57 | 214 | 1.0 | 1.0 | 0.00 | 0.00 | 0.00 | 36 | 1012.2 |
| 20260503032019 | 57 | 222 | 1.0 | 1.0 | 0.00 | 0.00 | 0.00 | 37 | 1012.2 |
| 20260503031517 | 57 | 232 | 0.0 | 0.0 | 0.00 | 0.00 | 0.00 | 34 | 1012.2 |
| 20260503031014 | 57 | 185 | 2.0 | 2.0 | 0.00 | 0.00 | 0.00 | 34 | 1012.2 |
| 20260503030510 | 57 | 214 | 1.0 | 1.0 | 0.00 | 0.00 | 0.00 | 34 | 1012.2 |
| 20260503030008 | 57 | 212 | 1.0 | 1.0 | 0.00 | 0.00 | 0.00 | 34 | 1012.2 |
| 20260503025504 | 58 | 189 | 2.0 | 2.0 | 0.00 | 0.00 | 0.00 | 34 | 1012.5 |
| 20260503025002 | 58 | 209 | 2.0 | 2.0 | 0.00 | 0.00 | 0.00 | 33 | 1012.5 |
| 20260503024457 | 58 | 201 | 1.0 | 1.0 | 0.00 | 0.00 | 0.00 | 34 | 1012.5 |
| 20260503023955 | 58 | 229 | 1.0 | 1.0 | 0.00 | 0.00 | 0.00 | 32 | 1012.5 |
| 20260503023452 | 58 | 235 | 2.0 | 2.0 | 0.00 | 0.00 | 0.00 | 32 | 1012.2 |
| 20260503022949 | 58 | 214 | 1.0 | 1.0 | 0.00 | 0.00 | 0.00 | 32 | 1012.2 |
| 20260503022444 | 58 | 227 | 2.0 | 2.0 | 0.00 | 0.00 | 0.00 | 32 | 1012.2 |
| 20260503021940 | 58 | 218 | 1.0 | 1.0 | 0.00 | 0.00 | 0.00 | 31 | 1012.2 |
| 20260503021436 | 58 | 216 | 1.0 | 1.0 | 0.00 | 0.00 | 0.00 | 32 | 1012.2 |
| 20260503020934 | 59 | 205 | 1.0 | 1.0 | 0.00 | 0.00 | 0.00 | 32 | 1012.2 |
| 20260503020432 | 59 | 227 | 1.0 | 1.0 | 0.00 | 0.00 | 0.00 | 31 | 1012.2 |
| 20260503015928 | 59 | 212 | 1.0 | 2.0 | 0.00 | 0.00 | 0.00 | 31 | 1012.5 |
| 20260503015425 | 59 | 208 | 1.0 | 2.0 | 0.00 | 0.00 | 0.00 | 31 | 1012.2 |
| 20260503014920 | 59 | 199 | 2.0 | 2.0 | 0.00 | 0.00 | 0.00 | 32 | 1012.2 |
| 20260503014418 | 60 | 217 | 1.0 | 2.0 | 0.00 | 0.00 | 0.00 | 31 | 1012.2 |
| 20260503013916 | 60 | 207 | 2.0 | 2.0 | 0.00 | 0.00 | 0.00 | 32 | 1012.2 |
| 20260503013413 | 60 | 196 | 2.0 | 2.0 | 0.00 | 0.00 | 0.00 | 30 | 1012.2 |
| 20260503012910 | 60 | 190 | 1.0 | 2.0 | 0.00 | 0.00 | 0.00 | 29 | 1011.8 |
| 20260503012408 | 60 | 198 | 2.0 | 2.0 | 0.00 | 0.00 | 0.00 | 29 | 1011.8 |
| 20260503011904 | 60 | 194 | 2.0 | 3.0 | 0.00 | 0.00 | 0.00 | 29 | 1012.2 |
| 20260503011400 | 61 | 202 | 2.0 | 2.0 | 0.00 | 0.00 | 0.00 | 29 | 1012.2 |
| 20260503010857 | 61 | 202 | 2.0 | 2.0 | 0.00 | 0.00 | 0.00 | 29 | 1012.2 |
| 20260503010354 | 61 | 173 | 2.0 | 3.0 | 0.00 | 0.00 | 0.00 | 28 | 1011.8 |
| 20260503005851 | 61 | 189 | 2.0 | 2.0 | 0.00 | 0.00 | 0.00 | 29 | 1012.2 |
| 20260503005349 | 61 | 194 | 1.0 | 1.0 | 0.00 | 0.00 | 0.00 | 28 | 1012.2 |
| 20260503004845 | 62 | 198 | 1.0 | 2.0 | 0.00 | 0.00 | 0.00 | 28 | 1012.2 |
| 20260503004342 | 62 | 190 | 2.0 | 2.0 | 0.00 | 0.00 | 0.00 | 27 | 1012.2 |
| 20260503003839 | 62 | 155 | 2.0 | 3.0 | 0.00 | 0.00 | 0.00 | 28 | 1011.8 |
| 20260503003336 | 62 | 181 | 2.0 | 2.0 | 0.00 | 0.00 | 0.00 | 27 | 1012.2 |
| 20260503002833 | 62 | 200 | 2.0 | 3.0 | 0.00 | 0.00 | 0.00 | 27 | 1012.2 |
| 20260503002331 | 62 | 187 | 2.0 | 2.0 | 0.00 | 0.00 | 0.00 | 26 | 1012.2 |
| 20260503001827 | 63 | 176 | 2.0 | 3.0 | 0.00 | 0.00 | 0.00 | 26 | 1012.2 |
| 20260503001323 | 63 | 200 | 3.0 | 3.0 | 0.00 | 0.00 | 0.00 | 26 | 1012.2 |
| 20260503000821 | 63 | 169 | 2.0 | 2.0 | 0.00 | 0.00 | 0.00 | 26 | 1012.2 |
| 20260503000319 | 63 | 164 | 5.0 | 7.0 | 0.00 | 0.00 | 0.00 | 25 | 1012.5 |
| 20260502235815 | 63 | 174 | 3.0 | 3.0 | 0.00 | 0.00 | 0.00 | 26 | 1012.2 |
| 20260502235312 | 63 | 190 | 4.0 | 4.0 | 0.00 | 0.00 | 0.00 | 25 | 1012.2 |
| 20260502234809 | 63 | 167 | 2.0 | 3.0 | 0.00 | 0.00 | 0.00 | 24 | 1012.2 |
| 20260502234306 | 63 | 188 | 3.0 | 3.0 | 0.00 | 0.00 | 0.00 | 25 | 1012.2 |
| 20260502233802 | 63 | 170 | 2.0 | 2.0 | 0.00 | 0.00 | 0.00 | 24 | 1012.2 |
| 20260502233259 | 64 | 166 | 2.0 | 2.0 | 0.00 | 0.00 | 0.00 | 25 | 1012.5 |
| 20260502232755 | 64 | 186 | 4.0 | 4.0 | 0.00 | 0.00 | 0.00 | 25 | 1012.5 |
| 20260502232252 | 64 | 144 | 4.0 | 4.0 | 0.00 | 0.00 | 0.00 | 24 | 1012.5 |
| 20260502231748 | 64 | 165 | 4.0 | 6.0 | 0.00 | 0.00 | 0.00 | 22 | 1012.5 |
| 20260502231246 | 65 | 181 | 4.0 | 4.0 | 0.00 | 0.00 | 0.00 | 25 | 1012.5 |
| 20260502230745 | 65 | 169 | 4.0 | 4.0 | 0.00 | 0.00 | 0.00 | 24 | 1012.5 |
| 20260502230242 | 65 | 178 | 3.0 | 4.0 | 0.00 | 0.00 | 0.00 | 23 | 1012.5 |
| 20260502225738 | 66 | 169 | 3.0 | 4.0 | 0.00 | 0.00 | 0.00 | 22 | 1012.5 |
| 20260502225236 | 66 | 148 | 4.0 | 4.0 | 0.00 | 0.00 | 0.00 | 22 | 1012.5 |
| 20260502224732 | 66 | 160 | 2.0 | 3.0 | 0.00 | 0.00 | 0.00 | 23 | 1012.5 |
| 20260502224229 | 66 | 182 | 4.0 | 4.0 | 0.00 | 0.00 | 0.00 | 23 | 1012.8 |
| 20260502223726 | 66 | 187 | 4.0 | 6.0 | 0.00 | 0.00 | 0.00 | 21 | 1012.5 |
| 20260502223224 | 66 | 183 | 2.0 | 4.0 | 0.00 | 0.00 | 0.00 | 21 | 1012.8 |
| 20260502222721 | 65 | 203 | 2.0 | 2.0 | 0.00 | 0.00 | 0.00 | 24 | 1012.8 |
| 20260502222218 | 65 | 150 | 5.0 | 8.0 | 0.00 | 0.00 | 0.00 | 22 | 1012.8 |
| 20260502221714 | 66 | 169 | 3.0 | 4.0 | 0.00 | 0.00 | 0.00 | 22 | 1012.8 |
| 20260502221211 | 66 | 195 | 6.0 | 8.0 | 0.00 | 0.00 | 0.00 | 22 | 1012.8 |
| 20260502220707 | 66 | 179 | 2.0 | 3.0 | 0.00 | 0.00 | 0.00 | 22 | 1013.2 |
| 20260502220203 | 66 | 87 | 1.0 | 3.0 | 0.00 | 0.00 | 0.00 | 23 | 1013.2 |
| 20260502215701 | 66 | 103 | 5.0 | 7.0 | 0.00 | 0.00 | 0.00 | 21 | 1013.2 |
| 20260502215157 | 66 | 155 | 4.0 | 7.0 | 0.00 | 0.00 | 0.00 | 21 | 1013.6 |
| 20260502214655 | 66 | 164 | 4.0 | 6.0 | 0.00 | 0.00 | 0.00 | 22 | 1013.6 |
| 20260502214152 | 66 | 172 | 3.0 | 4.0 | 0.00 | 0.00 | 0.00 | 21 | 1013.2 |
| 20260502213649 | 66 | 169 | 2.0 | 3.0 | 0.00 | 0.00 | 0.00 | 22 | 1013.6 |
| 20260502213146 | 66 | 191 | 5.0 | 8.0 | 0.00 | 0.00 | 0.00 | 21 | 1013.6 |
| 20260502212645 | 66 | 160 | 3.0 | 4.0 | 0.00 | 0.00 | 0.00 | 20 | 1013.6 |
| 20260502212143 | 66 | 154 | 6.0 | 9.0 | 0.00 | 0.00 | 0.00 | 20 | 1013.6 |
| 20260502211638 | 66 | 199 | 5.0 | 6.0 | 0.00 | 0.00 | 0.00 | 21 | 1013.9 |
| 20260502211135 | 66 | 168 | 8.0 | 11.0 | 0.00 | 0.00 | 0.00 | 19 | 1013.9 |
| 20260502210633 | 66 | 176 | 4.0 | 6.0 | 0.00 | 0.00 | 0.00 | 20 | 1013.9 |
| 20260502210130 | 66 | 159 | 6.0 | 9.0 | 0.00 | 0.00 | 0.00 | 19 | 1013.9 |
| 20260502205626 | 66 | 91 | 2.0 | 3.0 | 0.00 | 0.00 | 0.00 | 21 | 1014.3 |
| 20260502205123 | 66 | 171 | 10.0 | 11.0 | 0.00 | 0.00 | 0.00 | 18 | 1013.9 |
| 20260502204620 | 66 | 195 | 3.0 | 3.0 | 0.00 | 0.00 | 0.00 | 20 | 1013.9 |
| 20260502204118 | 66 | 171 | 2.0 | 4.0 | 0.00 | 0.00 | 0.00 | 21 | 1014.6 |
| 20260502203615 | 66 | 174 | 4.0 | 4.0 | 0.00 | 0.00 | 0.00 | 21 | 1014.3 |
| 20260502203112 | 66 | 90 | 2.0 | 3.0 | 0.00 | 0.00 | 0.00 | 21 | 1014.6 |
| 20260502202607 | 66 | 185 | 5.0 | 6.0 | 0.00 | 0.00 | 0.00 | 20 | 1014.6 |
| 20260502202105 | 66 | 203 | 6.0 | 7.0 | 0.00 | 0.00 | 0.00 | 23 | 1015.0 |
| 20260502201556 | 66 | 235 | 3.0 | 3.0 | 0.00 | 0.00 | 0.00 | 19 | 1015.0 |
| 20260502201053 | 66 | 158 | 5.0 | 8.0 | 0.00 | 0.00 | 0.00 | 20 | 1015.0 |
| 20260502200548 | 66 | 232 | 4.0 | 6.0 | 0.00 | 0.00 | 0.00 | 19 | 1015.0 |
| 20260502200047 | 65 | 120 | 2.0 | 2.0 | 0.00 | 0.00 | 0.00 | 20 | 1015.0 |
| 20260502195544 | 65 | 174 | 4.0 | 7.0 | 0.00 | 0.00 | 0.00 | 20 | 1015.3 |
| 20260502195040 | 65 | 188 | 2.0 | 2.0 | 0.00 | 0.00 | 0.00 | 24 | 1015.3 |
| 20260502194536 | 65 | 191 | 2.0 | 3.0 | 0.00 | 0.00 | 0.00 | 21 | 1015.6 |
| 20260502194032 | 65 | 218 | 4.0 | 6.0 | 0.00 | 0.00 | 0.00 | 20 | 1015.3 |
| 20260502193530 | 65 | 226 | 3.0 | 6.0 | 0.00 | 0.00 | 0.00 | 21 | 1015.3 |
| 20260502193027 | 65 | 171 | 3.0 | 4.0 | 0.00 | 0.00 | 0.00 | 20 | 1015.6 |
| 20260502192522 | 65 | 152 | 4.0 | 6.0 | 0.00 | 0.00 | 0.00 | 19 | 1015.6 |
| 20260502192020 | 65 | 54 | 2.0 | 2.0 | 0.00 | 0.00 | 0.00 | 20 | 1015.6 |
| 20260502191517 | 65 | 185 | 2.0 | 3.0 | 0.00 | 0.00 | 0.00 | 22 | 1015.6 |
| 20260502191015 | 65 | 227 | 5.0 | 6.0 | 0.00 | 0.00 | 0.00 | 20 | 1016.0 |
| 20260502190512 | 65 | 203 | 3.0 | 4.0 | 0.00 | 0.00 | 0.00 | 21 | 1016.0 |
| 20260502190008 | 64 | 143 | 3.0 | 4.0 | 0.00 | 0.00 | 0.00 | 20 | 1016.0 |
| 20260502185503 | 64 | 162 | 2.0 | 4.0 | 0.00 | 0.00 | 0.00 | 25 | 1016.0 |
| 20260502185001 | 64 | 168 | 5.0 | 7.0 | 0.00 | 0.00 | 0.00 | 22 | 1016.3 |
| 20260502184455 | 63 | 255 | 6.0 | 9.0 | 0.00 | 0.00 | 0.00 | 22 | 1016.7 |
| 20260502183953 | 63 | 248 | 1.0 | 1.0 | 0.00 | 0.00 | 0.00 | 20 | 1016.7 |